PICOSAT 9

Satellite information

Favourite Embed

Satellite Type and Status

PAYLOADIN ORBIT

Key statistics

Satellite PICOSAT 9 at a glance.

Uptime

8681

Days in orbit

Revolutions

≈ 14.3

Per day

Orbit

LEO

Low Earth Orbit

Inclination

67.0

Latest

Satellite identification and parameters

Extended collection of information and parameters for PICOSAT 9.

Object identification

Identified? True

Debris? False

Object name: PICOSAT 9

International designator: 2001-043B

Object number (NORAD): 26930

Object ID (CCSDS): 26930

Country: UNITED STATES OF AMERICA (US)

Current information (Y/N): Y

RCS size: MEDIUM

Orbital parameters

Period: 100.597 minutes

Inclination: 67.002 deg

SMA: 7165.02 km

Apoapsis: 792.014 km

Periapsis: 781.756 km

RAAN: 359.9559 deg

Eccentricy: 0.0007158

Argument of periapsis: 232.7378 deg

Mean anomaly: 127.3071 deg

Mean motion: 14.31451576 rev/day

Mean motion (dot): 0.00000017 rev/day2

B* drag term: 0.000037886 1/REarth

Two-line elements (TLE)

Creation date: July 6, 2025, 6:05 p.m.

Reference frame: TEME

Reference center: EARTH

Epoch: July 6, 2025, 2:22 p.m. UTC

TLE line 0: 0 PICOSAT 9

TLE line 1: 1 26930U 01043B 25187.59864710 .00000017 00000-0 37886-4 0 9995

TLE line 2: 2 26930 67.0020 359.9559 0007158 232.7378 127.3071 14.31451576241268

Live tracking on map

Real-time ground track for satellite PICOSAT 9.

In-orbit conjunctions

A list of the most updated potential collisions computed for object PICOSAT 9.

Target Orbit TCA Probability of collision Miss distance Type
FENGYUN 1C DEB SSO 2025-06-25 07:00:31 0.0004424318 364.0 (m) DEBRIS
COSMOS 1275 DEB LEO 2025-03-02 20:35:18 0.0001300386 148.0 (m) DEBRIS
FENGYUN 1C DEB SSO 2024-12-12 09:18:58 0.0001577861 242.0 (m) DEBRIS
FENGYUN 1C DEB SSO 2024-10-25 08:49:17 0.0001869833 866.0 (m) DEBRIS
IRIDIUM 33 DEB LEO 2024-09-15 17:22:15 0.0001203135 103.0 (m) DEBRIS

Associated space launch

Research (Atmospheric density) satellite built by Naval Research Laboratory (NRL) for NASA, USA.

PICOSAT 9 was lifted into orbit during the mission ‘Athena I | Starshine-OSCAR-43’, on board a Athena I space rocket.

The launch took place on Sept. 30, 2001, 2:40 a.m. from Launch Pad 1.

For more information about the launch, click the button.

Launch to space Athena I | Starshine-OSCAR-43
Athena I | Starshine-OSCAR-43

Agency: N/A

Status: Launch Successful

Launch date: Sept. 30, 2001, 2:40 a.m. UTC

Rocket: Athena I

Launch pad: Launch Pad 1

Location: Pacific Spaceport Complex, Alaska, USA

...

Latest news about this satellite

There are no fresh news available about this satellite. Check back as we update our databases every day.


Newsletter sign-up

Weekly statistics, charts and insights to help you stay on top of the space industry.